Weather History for Spirit of St Louis, MO

Change the Weather History Date:

Saturday, March 2, 2013

  Actual Average Record
Temperature  
Mean Temperature 27 °F -  
Max Temperature 33 °F 46 °F 78 °F (2008)
Min Temperature 21 °F 27 °F 6 °F (2014)
Degree Days  
Heating Degree Days 38    
Moisture  
Dew Point 18 °F    
Average Humidity 67    
Maximum Humidity 81    
Minimum Humidity 52    
Precipitation  
Precipitation 0.00 in - - ()
Sea Level Pressure  
Sea Level Pressure 30.26 in    
Wind  
Wind Speed 10 mph (NW)    
Max Wind Speed 14 mph    
Max Gust Speed 20 mph    
Visibility 10 miles    
Events Snow    
Averages and records for this station are not official NWS values.
T = Trace of Precipitation, MM = Missing Value Source: NWS Daily Summary

Daily Weather History Graph

Daily Weather History Graph

Search for Another Location

Airport:

Trip Planner

Search our weather history database for the weather conditions in past years. The results will help you decide how hot, cold, wet, or windy it might be!

Date:

Astronomy

Mar. 02, 2013 Rise Set
Actual Time 6:33 AM CST 5:56 PM CST
Civil Twilight 6:06 AM CST 6:23 PM CST
Nautical Twilight 5:35 AM CST 6:54 PM CST
Astronomical Twilight 5:04 AM CST 7:25 PM CST
Moon 11:32 PM CST (3/2) 9:05 AM CST (3/2)
Length of Visible Light 12h 17m
Length of Day
11h 23m
Waning Gibbous, 74% of the Moon is Illuminated
Mar 2
Waning Gibbous
Mar 4
Last Quarter
Mar 11
New
Mar 19
First Quarter
Mar 27
Full

Hourly Weather History & Observations

Time (CST) Temp. Windchill Dew Point Humidity Pressure Visibility Wind Dir Wind Speed Gust Speed Precip Events Conditions
12:54 AM 28.0 °F 19.3 °F 21.9 °F 78% 30.24 in 9.0 mi NNW 9.2 mph - N/A   Overcast
1:54 AM 28.0 °F 18.6 °F 21.9 °F 78% 30.24 in 9.0 mi NNW 10.4 mph - 0.00 in Snow Light Snow
2:54 AM 27.0 °F 18.0 °F 21.0 °F 78% 30.23 in 7.0 mi NNW 9.2 mph - 0.00 in   Overcast
3:54 AM 27.0 °F 16.7 °F 21.0 °F 78% 30.23 in 10.0 mi NNW 11.5 mph - 0.00 in   Overcast
4:21 AM 26.6 °F 17.5 °F 21.2 °F 80% 30.20 in 10.0 mi NNW 9.2 mph - N/A   Overcast
4:54 AM 26.6 °F 17.5 °F 19.4 °F 74% 30.21 in 10.0 mi NNW 9.2 mph - N/A   Overcast
5:54 AM 27.0 °F 16.7 °F 19.0 °F 72% 30.25 in 10.0 mi NNW 11.5 mph - N/A   Overcast
6:54 AM 27.0 °F 16.7 °F 18.0 °F 69% 30.27 in 10.0 mi NNW 11.5 mph - N/A   Overcast
7:54 AM 27.0 °F 16.7 °F 19.0 °F 72% 30.29 in 8.0 mi NNW 11.5 mph - N/A   Overcast
8:54 AM 28.9 °F 20.4 °F 21.0 °F 72% 30.29 in 6.0 mi NW 9.2 mph - 0.00 in Snow Light Snow
9:08 AM 28.4 °F 19.1 °F 21.2 °F 74% 30.26 in 8.0 mi NW 10.4 mph - 0.00 in Snow Light Snow
9:54 AM 28.9 °F 18.6 °F 19.0 °F 67% 30.30 in 10.0 mi NNW 12.7 mph - 0.00 in   Mostly Cloudy
10:54 AM 30.0 °F 20.5 °F 18.0 °F 61% 30.30 in 10.0 mi NNW 11.5 mph - N/A   Overcast
11:54 AM 32.0 °F 23.6 °F 18.0 °F 56% 30.29 in 10.0 mi NW 10.4 mph - N/A   Mostly Cloudy
12:54 PM 32.0 °F 22.5 °F 18.0 °F 56% 30.27 in 10.0 mi NNW 12.7 mph - N/A   Mostly Cloudy
1:54 PM 33.1 °F 23.4 °F 18.0 °F 54% 30.26 in 10.0 mi NNW 13.8 mph 19.6 mph N/A   Mostly Cloudy
2:54 PM 33.1 °F 24.9 °F 18.0 °F 54% 30.25 in 10.0 mi NNW 10.4 mph - N/A   Overcast
3:54 PM 33.1 °F 25.5 °F 17.1 °F 52% 30.25 in 10.0 mi NNW 9.2 mph - N/A   Overcast
4:54 PM 32.0 °F 23.6 °F 16.0 °F 52% 30.26 in 10.0 mi WNW 10.4 mph - N/A   Mostly Cloudy
5:54 PM 30.0 °F 22.4 °F 16.0 °F 56% 30.27 in 10.0 mi WNW 8.1 mph - N/A   Scattered Clouds
6:54 PM 28.0 °F 20.0 °F 16.0 °F 61% 30.27 in 10.0 mi West 8.1 mph - N/A   Partly Cloudy
7:54 PM 27.0 °F 19.5 °F 17.1 °F 66% 30.28 in 10.0 mi West 6.9 mph - N/A   Clear
8:54 PM 27.0 °F 18.7 °F 16.0 °F 63% 30.27 in 10.0 mi WNW 8.1 mph - N/A   Clear
9:54 PM 25.0 °F 18.1 °F 16.0 °F 69% 30.27 in 10.0 mi WNW 5.8 mph - N/A   Clear
10:54 PM 21.9 °F - 16.0 °F 78% 30.26 in 10.0 mi Calm Calm - N/A   Clear
11:54 PM 21.0 °F - 16.0 °F 81% 30.26 in 10.0 mi Calm Calm - N/A   Clear